Date String (YYYY-MM-DD hh:mm:ss) UTC,Instrument flags,Ambient pressure (hPa),Sample flow (lpm),Bypass flow (lpm),Sample temperature (°C),Ambient temperature (°C),ASC tube jacket temperature (°C),LED temperature (°C),Box temperature (°C),Sample RH (%),Span deviation,Mass concentration (μg/m³),Mass concentration (μg/m³),Mass concentration (μg/m³)
DateTimeUTC,F1_M11,P_M11,Q1_M11,Q2_M11,T1_M11,T2_M11,T3_M11,T4_M11,T5_M11,U1_M11,ZSPAN_M11,X0_M11,X2_M11,X1_M11
2022-09-28 06:00:00,,0833.9,4.99,0.00,30.5,29.0,00.0,39.2,32.3,19.3,0000.0,0011.40,0004.22,0003.62
2022-09-28 06:01:00,,0833.9,5.00,0.00,30.5,29.0,00.0,39.2,32.3,19.3,0000.0,0010.74,0004.14,0003.56
2022-09-28 06:02:00,,0833.8,4.99,0.00,30.5,29.0,00.0,39.2,32.3,19.4,0000.0,0010.53,0004.01,0003.47
2022-09-28 06:03:00,,0833.8,5.01,0.00,30.5,29.0,00.0,39.2,32.4,19.4,0000.0,0010.46,0003.90,0003.40
2022-09-28 06:04:00,,0833.8,4.99,0.00,30.5,29.1,00.0,39.3,32.4,19.5,0000.0,0011.03,0003.83,0003.34
2022-09-28 06:05:00,,0833.8,4.99,0.00,30.5,29.1,00.0,39.3,32.4,19.6,0000.0,0010.87,0003.75,0003.28
2022-09-28 06:06:00,,0833.8,5.01,0.00,30.5,29.1,00.0,39.3,32.4,19.5,0000.0,0010.49,0003.68,0003.24
2022-09-28 06:07:00,,0833.8,4.99,0.00,30.5,29.1,00.0,39.3,32.4,19.5,0000.0,0008.84,0003.65,0003.21
2022-09-28 06:08:00,,0833.7,5.01,0.00,30.6,29.2,00.0,39.3,32.4,19.4,0000.0,0008.78,0003.65,0003.20
2022-09-28 06:09:00,,0833.8,5.00,0.00,30.6,29.2,00.0,39.3,32.4,19.3,0000.0,0008.74,0003.64,0003.20
2022-09-28 06:10:00,,0833.7,5.00,0.00,30.6,29.2,00.0,39.3,32.4,19.3,0000.0,0008.63,0003.65,0003.20
2022-09-28 06:11:00,,0833.7,5.00,0.00,30.6,29.3,00.0,39.3,32.5,19.1,0000.0,0007.80,0003.65,0003.20
2022-09-28 06:12:00,,0833.7,4.99,0.00,30.6,29.2,00.0,39.3,32.5,19.0,0000.0,0008.66,0003.66,0003.21
2022-09-28 06:13:00,,0833.7,5.01,0.00,30.6,28.0,00.0,39.3,32.4,18.9,0000.0,0009.07,0003.72,0003.23
2022-09-28 06:14:00,,0833.7,5.00,0.00,30.6,26.9,00.0,39.2,32.3,19.0,0000.0,0010.20,0003.80,0003.25
2022-09-28 06:15:00,,0833.7,5.00,0.00,30.5,26.8,00.0,39.2,32.1,19.1,0000.0,0010.15,0003.84,0003.27
2022-09-28 06:16:00,,0833.7,4.99,0.00,30.4,27.1,00.0,39.1,32.0,19.1,0000.0,0010.17,0003.88,0003.28
2022-09-28 06:17:00,,0833.7,4.98,0.00,30.3,27.4,00.0,39.1,32.0,19.0,0000.0,0010.21,0003.89,0003.28
2022-09-28 06:18:00,,0833.7,5.00,0.00,30.3,27.7,00.0,39.1,32.0,18.9,0000.0,0010.36,0003.88,0003.28
2022-09-28 06:19:00,,0833.6,5.00,0.00,30.3,28.0,00.0,39.0,32.0,18.8,0000.0,0011.17,0003.87,0003.27
2022-09-28 06:20:00,,0833.6,5.01,0.00,30.2,28.2,00.0,39.0,32.0,18.7,0000.0,0011.41,0003.85,0003.26
2022-09-28 06:21:00,,0833.6,4.99,0.00,30.2,28.3,00.0,39.0,32.0,18.8,0000.0,0012.05,0003.85,0003.25
2022-09-28 06:22:00,,0833.6,5.01,0.00,30.2,28.4,00.0,39.0,32.0,19.0,0000.0,0012.16,0003.87,0003.25
2022-09-28 06:23:00,,0833.6,4.99,0.00,30.2,28.5,00.0,39.0,32.0,19.1,0000.0,0011.70,0003.89,0003.26
2022-09-28 06:24:00,,0833.6,5.01,0.00,30.2,28.6,00.0,39.0,32.0,19.1,0000.0,0011.38,0003.89,0003.27
2022-09-28 06:25:00,,0833.6,4.99,0.00,30.2,28.7,00.0,39.0,32.0,19.0,0000.0,0011.12,0003.88,0003.29
2022-09-28 06:26:00,,0833.6,5.00,0.00,30.2,28.7,00.0,39.0,32.1,19.0,0000.0,0010.92,0003.91,0003.31
2022-09-28 06:27:00,,0833.6,4.99,0.00,30.2,28.8,00.0,39.0,32.1,18.8,0000.0,0010.82,0003.90,0003.33
2022-09-28 06:28:00,,0833.6,5.00,0.00,30.3,28.8,00.0,39.0,32.1,18.7,0000.0,0010.84,0003.92,0003.33
2022-09-28 06:29:00,,0833.6,5.00,0.00,30.3,28.9,00.0,39.0,32.1,18.7,0000.0,0011.06,0003.97,0003.34
2022-09-28 06:30:00,,0833.6,4.99,0.00,30.3,28.9,00.0,39.0,32.1,18.7,0000.0,0010.34,0004.00,0003.37
2022-09-28 06:31:00,,0833.5,5.01,0.00,30.3,28.9,00.0,39.0,32.1,18.7,0000.0,0010.60,0004.05,0003.40
2022-09-28 06:32:00,,0833.6,4.99,0.00,30.3,28.9,00.0,39.0,32.2,18.7,0000.0,0010.12,0004.12,0003.43
2022-09-28 06:33:00,,0833.5,5.01,0.00,30.3,28.9,00.0,39.0,32.2,18.7,0000.0,0010.92,0004.20,0003.47
2022-09-28 06:34:00,,0833.6,4.99,0.00,30.3,28.9,00.0,39.0,32.2,18.8,0000.0,0011.30,0004.26,0003.49
2022-09-28 06:35:00,,0833.5,4.99,0.00,30.4,28.9,00.0,39.0,32.2,18.8,0000.0,0011.25,0004.28,0003.49
2022-09-28 06:36:00,,0833.5,5.02,0.00,30.4,29.0,00.0,39.0,32.2,18.8,0000.0,0010.77,0004.27,0003.49
2022-09-28 06:37:00,,0833.6,4.99,0.00,30.4,29.0,00.0,39.0,32.2,18.8,0000.0,0010.19,0004.28,0003.48
2022-09-28 06:38:00,,0833.6,5.01,0.00,30.4,29.1,00.0,39.1,32.2,18.8,0000.0,0010.44,0004.24,0003.48
2022-09-28 06:39:00,,0833.6,5.00,0.00,30.4,29.1,00.0,39.1,32.2,18.8,0000.0,0010.60,0004.25,0003.49
2022-09-28 06:40:00,,0833.6,4.99,0.00,30.4,29.1,00.0,39.1,32.3,18.8,0000.0,0010.64,0004.25,0003.50
2022-09-28 06:41:00,,0833.6,5.01,0.00,30.4,29.1,00.0,39.1,32.3,18.8,0000.0,0010.61,0004.27,0003.52
2022-09-28 06:42:00,,0833.6,4.99,0.00,30.4,29.1,00.0,39.1,32.3,18.9,0000.0,0010.47,0004.31,0003.53
2022-09-28 06:43:00,,0833.6,5.01,0.00,30.4,29.1,00.0,39.1,32.3,18.9,0000.0,0010.40,0004.32,0003.53
2022-09-28 06:44:00,,0833.6,4.99,0.00,30.5,29.1,00.0,39.1,32.3,18.8,0000.0,0009.68,0004.28,0003.51
2022-09-28 06:45:00,,0833.6,5.01,0.00,30.5,29.1,00.0,39.2,32.3,18.7,0000.0,0009.28,0004.24,0003.49
2022-09-28 06:46:00,,0833.6,5.00,0.00,30.5,29.1,00.0,39.2,32.3,18.7,0000.0,0009.80,0004.25,0003.48
2022-09-28 06:47:00,,0833.6,5.01,0.00,30.5,29.1,00.0,39.2,32.3,18.7,0000.0,0009.97,0004.26,0003.46
2022-09-28 06:48:00,,0833.6,4.99,0.00,30.5,29.2,00.0,39.2,32.4,18.7,0000.0,0010.79,0004.31,0003.44
2022-09-28 06:49:00,,0833.7,5.01,0.00,30.5,29.2,00.0,39.2,32.4,18.6,0000.0,0010.78,0004.37,0003.43
2022-09-28 06:50:00,,0833.6,4.99,0.00,30.5,29.2,00.0,39.2,32.4,18.7,0000.0,0010.66,0004.36,0003.41
2022-09-28 06:51:00,,0833.6,5.02,0.00,30.5,29.2,00.0,39.2,32.4,18.7,0000.0,0010.76,0004.37,0003.39
2022-09-28 06:52:00,,0833.6,4.99,0.00,30.5,29.2,00.0,39.2,32.4,18.7,0000.0,0010.96,0004.34,0003.37
2022-09-28 06:53:00,,0833.6,5.01,0.00,30.6,29.2,00.0,39.2,32.4,18.7,0000.0,0010.94,0004.31,0003.34
2022-09-28 06:54:00,,0833.6,4.99,0.00,30.6,29.2,00.0,39.2,32.4,18.7,0000.0,0010.97,0004.32,0003.33
2022-09-28 06:55:00,,0833.6,5.00,0.00,30.6,29.3,00.0,39.3,32.5,18.7,0000.0,0011.39,0004.36,0003.33
2022-09-28 06:56:00,,0833.6,5.01,0.00,30.6,29.3,00.0,39.3,32.5,18.6,0000.0,0012.03,0004.33,0003.32
2022-09-28 06:57:00,,0833.6,4.99,0.00,30.6,29.3,00.0,39.3,32.5,18.5,0000.0,0011.67,0004.31,0003.30
2022-09-28 06:58:00,,0833.6,5.01,0.00,30.6,29.3,00.0,39.3,32.5,18.5,0000.0,0011.69,0004.27,0003.28
2022-09-28 06:59:00,,0833.6,5.01,0.00,30.6,29.3,00.0,39.3,32.5,18.6,0000.0,0011.05,0004.21,0003.26
